Location: Borojevi?i
(45.0486°N, 16.2297°E)
Time: 21:50:13
(UTC+00:00)

Cosmos 2333 Rocket - Pass Details

Date: 08 August 2020
Orbit: 837 x 864 km, 70.8° (Epoch: 21 September)

Event Time Altitude Azimuth Distance (km) Brightness Sun altitude
Rises 22:33:02 0° 335° (NNW) 3,455 6.5 -28.8°
Reaches altitude 10° 22:35:32 10° 339° (NNW) 2,513 5.5 -28.9°
Maximum altitude 22:41:17 65° 61° (ENE) 947 2.4 -29.0°
Enters shadow 22:41:23 65° 67° (ENE) 948 2.4 -29.0°
